Regional Weather Roundup
Issued by NWS Charleston, SC

Current Version | Previous Version | Graphics & Text | Print | Product List | Glossary On
Versions: 1 2 3 4 5 6 7 8 9 10 11 12 13 14 15 16 17 18 19 20 21 22 23 24 25 26 27 28 29 30 31 32 33 34 35 36 37 38 39 40 41 42 43 44 45 46 47 48 49 50
000
ASUS42 KCHS 242213
RWRCHS

REGIONAL WEATHER ROUNDUP
NATIONAL WEATHER SERVICE CHARLESTON SC
600 PM EDT WED AUG 24 2016

NOTE: "FAIR" INDICATES FEW OR NO CLOUDS BELOW 12,000 FEET WITH NO
SIGNIFICANT WEATHER AND/OR OBSTRUCTIONS TO VISIBILITY.

NOT ALL STATIONS ARE QUALITY CONTROLLED. USE DATA WITH CAUTION...
ESPECIALLY DEWPOINT OBSERVATIONS.

SCZ027-030-031-034>040-042>050-242300-
...SOUTHEAST SOUTH CAROLINA...

CITY           SKY/WX    TMP DP  RH WIND       PRES   REMARKS
N CHARLESTON   PTSUNNY   86  63  45 E10       30.17S
WATERFRONT PRK   N/A     86  68  54 E13       30.15F
MOUNT PLEASANT FAIR      84  66  54 E6        30.17S
JOHNS ISLAND   FAIR      84  64  51 E10       30.17S
PINOPOLIS        N/A     86  64  48 VRB3      30.11S
MONCKS CORNER  FAIR      84  63  48 NE5       30.17F
SUMMERVILLE    FAIR      86  64  48 N5        30.18F
BEAUFORT MCAS  MOSUNNY   86  66  51 E8G17     30.17S
BEAUFORT ARPT  FAIR      86  63  45 E8G18     30.17S
HILTON HEAD IS MOSUNNY   90  64  43 NE8       30.18S HX  91
WALTERBORO     PTCLDY    90  59  35 E7        30.18S
ALLENDALE      FAIR      90  63  40 VRB5      30.16S HX  90

...SOUTHERN MIDLANDS AND PEE DEE...

CITY           SKY/WX    TMP DP  RH WIND       PRES   REMARKS
GEORGETOWN     FAIR      82  64  54 E6        30.19S
KINGSTREE      FAIR      84  59  42 E5        30.18S
ORANGEBURG     MOSUNNY   88  62  41 VRB7      30.18S
BARNWELL       NOT AVBL
AIKEN          FAIR      88  66  48 NW3       30.22F HX  90
MANNING        FAIR      86  61  42 N6        30.18S
COLUMBIA       PTSUNNY   89  64  43 S6        30.17S HX  90
SUMTER         PTSUNNY   89  62  40 E8        30.16S
FLORENCE       CLOUDY    89  60  37 E9        30.18F
MYRTLE BEACH   MOSUNNY   88  57  35 NE7       30.19S
N MYRTLE BEACH PTSUNNY   86  62  44 NE12      30.18R

$$

GAZ063-065-086>088-099>101-113>116-118-119-134>141-150-242300-
...SOUTHEAST GEORGIA...

CITY           SKY/WX    TMP DP  RH WIND       PRES   REMARKS
SAVANNAH ARPT  PTSUNNY   87  64  46 E15       30.16F
HUNTER AAF     SUNNY     86  72  63 E13       30.14F HX  92
FORT STEWART   SUNNY     87  67  52 E10       30.13F HX  90
STATESBORO     MOSUNNY   90  66  44 NE3       30.16F HX  92
SYLVANIA       CLEAR    N/A N/A N/A E6        30.17F
CLAXTON        FAIR      91  66  44 NE9       30.15S HX  93

...CSRA...CENTRAL AND FAR SOUTHEAST GEORGIA...

CITY           SKY/WX    TMP DP  RH WIND       PRES   REMARKS
THOMSON        CLOUDY    86  73  66 MISG      30.24F HX  93
AUGUSTA-BUSH   PTSUNNY   90  67  46 N9        30.16F HX  93
AUGUSTA-DANIEL PTSUNNY   88  66  48 N7        30.19F HX  90
SWAINSBORO     CLOUDY    90  61  37 E5        30.17S
VIDALIA        SUNNY     91  68  46 E7        30.16S HX  95
EASTMAN        FAIR      91  48  22 NE5       30.18F
HAZLEHURST     FAIR      92  65  41 E6        30.14F HX  94
ALMA           PTSUNNY   89  69  51 E8        30.14F HX  93
WAYCROSS         N/A     91  73  55 E12       30.14S HX  98
JESUP          FAIR      88  73  62 E9        30.15F HX  96
BAXLEY         FAIR      90  75  62 SE6       30.14S HX 100
BRUNSWICK      PTSUNNY   86  73  66 E18       30.16S HX  93
SAINT SIMONS   MOSUNNY   86  70  58 NE17G23   30.15S HX  90

$$

SCZ027-028-034-036>038-045-046-048>050-GAZ119-141-242300-
...LAKE AND SUPPLEMENTAL COASTAL OBSERVATIONS...

STATION/POSITION TIME  TEMP    WIND        PRES    WAVE   SWELL
                       AIR SEA DIR/SP/G            HT/PER HT/PER/DIR
                 (UTC) (F)     (DEG/KT/KT) (MB)    (FT/S) (FT/S/D)
WINYAH BAY       2045   82      90/  8     1021.0
LAKE MURRAY      2100   90      CALM  /  2 1021.3F
ACE BASIN NERRS  NOT AVBL
FORT PULASKI     2100   83 86   60/ 17/ 21 1022.1F
SAPELO ISLAND    2100   86      60/ 13     1021.0F

$$

ANZ835-935-AMZ111-154-330-350-352-354-370-450-454-472-242300-
...C-MAN AND BUOY OBSERVATIONS...

STATION/POSITION TIME  TEMP    WIND        PRES    WAVE   SWELL
                       AIR SEA DIR/SP/G            HT/PER HT/PER/DIR
                 (UTC) (F)     (DEG/KT/KT) (MB)    (FT/S) (FT/S/D)
BUOY 41004       2150   82 84   40/ 16/ 17 1020.9F   5/ 6   2/100/ 8
BUOY 41008       2150   83 85   70/ 16/ 19 1020.7F   5/ 6   2/130/12
FOLLY BEACH CMAN 2200   82      80/ 13/ 16 1022.0F
CAPERS NEARSHORE 2108   82 84   90/ 12/ 16 1021.6F
FRIPP NEARSHORE  2108   83 87   90/ 16/ 21 1021.1F


STATION/POSITION TIME  TEMP    WIND        PRES    WAVE   SWELL
                       AIR SEA DIR/SP/G            HT/PER HT/PER/DIR
                 (UTC) (F)     (DEG/KT/KT) (MB)    (FT/S) (FT/S/D)
5E ST. MARYS GA  2101      84                N/A     4/ 5
FRYING PAN BUOY  2100   80 85   30/ 12/ 16 1021.5F
BUOY 41025       2150   81 85   90/ 10/ 12 1022.3F   3/ 7   2/ 50/ 7
CAPE LOOKOUT NC  2200   79      30/ 12/ 15 1021.9S
BUOY 41002       2150   82 85   50/ 14/ 17 1019.3F   5/ 6   2/100/11
BUOY 41010       NOT AVBL
ST AUGUSTINE FL  2200   83 85   30/ 15/ 17 1020.7F


$$




USA.gov is the U.S. government's official web portal to all federal, state and local government web resources and services.